Tracking 31027 objects as of 19-Jul-2025
HD Live streaming from Space Station
objects crossing your sky now

STARLINK-31344

Track STARLINK-31344 now!
10-day predictions
STARLINK-31344 is classified as:


NORAD ID: 59171
Int'l Code: 2024-044V
Perigee: 489.2 km
Apogee: 491.2 km
Inclination: 43.0 °
Period: 94.3 minutes
Semi major axis: 6861 km
RCS: Unknown
Launch date: March 4, 2024
Source: United States (US)
Launch site: AIR FORCE EASTERN TEST RANGE (AFETR)
Your satellite tracking list
FENGYUN 1C DEB
Track 1 satellite(s)




NASA's NSSDC Master Catalog

Two Line Element Set (TLE):
1 59171U 24044V   25199.48333060 -.00000011  00000-0  91332-5 0  9996
2 59171  43.0025 349.9628 0001483 262.9889  97.0794 15.27576428 77771
Source of the keplerian elements: AFSPC